TIME,DELAY(SENSOR),PRES,OXYGEN,RAWTEMP,T(OPTODE),TCPHASE,FLUOR,BETA(BETA700),BETA(BETA412),BETA(BETA440),CDOM,C(CSC),ED(ED412.20),ED(ED444.00),ED(ED489.60),ED(ED554.30),LU(LU412.10),LU(LU443.90),LU(LU489.70),LU(LU554.70),COMP,TILTX,TILTY,CHECK
1366172102,5808,854.7899780273438000,34.1570205688476560,562.7493286132812000,4.4006600379943850,56.4411811828613300,55,99,99,78,81,15528,0,0,0,0,2147122843,2147773421,2147571657,2147566811,3426,2,13,21740
1366175698,5811,925.6500244140625000,38.6958007812500000,568.9274291992188000,4.2088890075683590,55.8020591735839840,54,98,100,78,82,15527,0,0,0,0,2147122688,2147772178,2147569243,2147569773,3475,3,13,48274
1366179298,5812,935.4799804687500000,39.5828208923339840,569.2014160156250000,4.2003769874572750,55.6661911010742200,55,98,100,78,83,15525,0,0,0,0,2147122651,2147774482,2147570386,2147565138,10,3,13,63551
1366182898,5810,961.0499877929688000,39.7559013366699200,571.5662841796875000,4.1268749237060550,55.6715888977050800,55,97,99,77,81,15524,0,0,0,0,2147124781,2147769453,2147570898,2147566546,23,3,13,23431
1366186498,5809,967.3900146484375000,39.9060897827148440,571.3607177734375000,4.1332697868347170,55.6418304443359400,54,99,100,78,81,15526,0,0,0,0,2147124251,2147768374,2147572406,2147570468,499,2,13,12075
1366190098,5811,971.4600219726562000,40.2180900573730500,571.9591064453125000,4.1146640777587890,55.6062011718750000,54,104,100,78,81,15521,0,0,0,0,2147122697,2147772882,2147573321,2147565869,428,2,13,28921
1366193698,5808,967.9400024414062000,40.2563209533691400,572.6934204101562000,4.0918331146240230,55.6103286743164060,54,99,100,78,81,15522,0,0,0,0,2147124141,2147770797,2147575780,2147568301,217,3,13,37925
1366197298,5812,972.5999755859375000,40.3288307189941400,572.1807861328125000,4.1077728271484375,55.5904197692871100,54,98,100,77,82,15522,0,0,0,0,2147120777,2147770669,2147573659,2147569325,281,2,13,53133
1366200898,5812,972.7100219726562000,40.9985504150390600,572.9929809570312000,4.0825119018554690,55.5009498596191400,56,98,101,78,82,15516,0,0,0,0,2147123739,2147769618,2147573156,2147566555,3363,2,13,51148
1366204498,5809,975.7700195312500000,40.7221107482910160,572.6926269531250000,4.0918579101562500,55.5375099182128900,55,100,100,78,82,15518,0,0,0,0,2147124233,2147770953,2147572059,2147567817,468,2,13,6643
1366208098,5810,971.1099853515625000,40.2570114135742200,572.9171142578125000,4.0848731994628910,55.6042289733886700,54,98,100,78,81,15514,0,0,0,0,2147124288,2147769956,2147577106,2147566262,5,3,13,20590
1366211698,5808,967.7299804687500000,40.5761299133300800,572.8510742187500000,4.0869259834289550,55.5598182678222660,55,99,100,77,82,15517,0,0,0,0,2147125293,2147772251,2147569984,2147568585,3155,3,13,30493
1366215298,5811,976.3599853515625000,41.0172500610351560,572.5189819335938000,4.0972561836242680,55.4938201904296900,55,97,100,78,80,15515,0,0,0,0,2147123446,2147772909,2147569334,2147567661,1878,2,13,52368
1366218898,5811,974.9799804687500000,39.3409996032714840,573.2763061523438000,4.0737018585205080,55.7509117126464840,54,97,100,78,82,15515,0,0,0,0,2147123977,2147773412,2147576548,2147566061,98,2,13,17656
1366222498,5808,973.2100219726562000,41.0401496887207000,572.9401855468750000,4.0841541290283200,55.4940414428710940,54,101,99,78,82,15496,0,0,0,0,2147124187,2147775140,2147572891,2147569993,165,2,13,12974
1366226098,5812,972.8800048828125000,39.3673400878906250,573.1921997070312000,4.0763192176818850,55.7411003112793000,53,96,101,78,82,15498,0,0,0,0,2147122971,2147772580,2147574646,2147569938,140,2,13,61683
1366229698,5811,965.9400024414062000,40.9903488159179700,573.9885864257812000,4.0515441894531250,55.5151100158691400,54,97,99,78,81,15497,0,0,0,0,2147124388,2147775981,2147571254,2147570221,3300,2,13,28355
1366233298,5810,974.8900146484375000,41.5984992980957000,573.5545043945312000,4.0650482177734375,55.4154090881347660,56,97,99,78,81,15497,0,0,0,0,2147124580,2147773942,2147567533,2147569051,3242,2,13,62310
1366236898,5809,978.7999877929688000,40.8893890380859400,573.1027832031250000,4.0791001319885250,55.5149497985839840,54,96,100,77,82,15496,0,0,0,0,2147123172,2147773302,2147570624,2147566582,210,2,13,13613
1366240498,5811,982.2399902343750000,40.6610908508300800,572.8533935546875000,4.0868549346923830,55.5427589416503900,55,97,100,78,81,15496,0,0,0,0,2147119506,2147775131,2147570642,2147570331,3519,2,13,23208
1366244098,5811,977.4799804687500000,39.2455711364746100,572.9489746093750000,4.0838828086853030,55.7577400207519500,54,101,98,78,80,15493,0,0,0,0,2147122230,2147771977,2147569371,2147569033,34,3,13,41473
1366247698,5811,980.7600097656250000,41.0937881469726560,572.9663085937500000,4.0833439826965330,55.4825096130371100,55,99,99,78,82,15495,0,0,0,0,2147122953,2147772873,2147576832,2147566308,3548,2,13,18244
1366251298,5810,975.1900024414062000,41.0579299926757800,573.3441772460938000,4.0715899467468260,55.4917488098144500,55,96,102,78,81,15497,0,0,0,0,2147119908,2147773787,2147575286,2147567204,3328,2,13,44623
1366254898,5810,979.5599975585938000,40.5796508789062500,573.3820800781250000,4.0704121589660645,55.5663490295410160,54,96,100,77,82,15496,0,0,0,0,2147122432,2147775076,2147572480,2147569682,3527,2,13,12123
1366258498,5811,977.5200195312500000,41.1589813232421900,573.1124877929688000,4.0787959098815920,55.4743309020996100,56,97,99,76,81,15493,0,0,0,0,2147122349,2147766829,2147574948,2147566820,6,2,13,59575
1366262098,5810,988.6900024414062000,40.8521194458007800,572.8043823242188000,4.0883769989013670,55.5207405090332000,54,100,99,78,82,15494,0,0,0,0,2147122989,2147767332,2147569801,2147565714,156,3,13,38573
1366265698,5809,983.2800292968750000,40.3070793151855500,572.6397705078125000,4.0935001373291020,55.5944709777832000,55,99,99,78,82,15495,0,0,0,0,2147121609,2147772352,2147574509,2147568859,57,2,13,32363
1366269298,5811,985.1400146484375000,40.6829795837402340,572.9171752929688000,4.0848708152771000,55.5481681823730500,55,97,99,78,81,15492,0,0,0,0,2147123821,2147772480,2147572480,2147570075,352,2,13,8311
1366272898,5809,992.6199951171875000,39.9382781982421900,572.1381225585938000,4.1090979576110840,55.6503791809082000,55,121,100,79,82,15490,0,0,0,0,2147120475,2147774454,2147572608,2147568118,3488,2,13,53564
1366276498,5810,981.9400024414062000,39.2114295959472660,572.5803222656250000,4.0953497886657715,55.7623100280761700,54,98,100,77,81,15494,0,0,0,0,2147124251,2147766098,2147572617,2147567122,3538,2,13,39928
1366280098,5811,983.3300170898438000,40.6156501770019500,573.2263183593750000,4.0752577781677250,55.5575408935546900,54,98,99,79,82,15478,0,0,0,0,2147122669,2147767314,2147572845,2147567204,3527,2,13,11420
1366283698,5809,977.7100219726562000,40.3699188232421900,573.8182983398438000,4.0568428039550780,55.5995292663574200,55,98,100,78,81,15474,0,0,0,0,2147121398,2147766802,2147573632,2147568091,494,2,13,64742
1366287298,5810,978.3200073242188000,40.5775794982910160,573.8192749023438000,4.0568099021911620,55.5707588195800800,55,100,99,78,82,15473,0,0,0,0,2147120923,2147773083,2147566473,2147567277,700,3,13,32752
1366290898,5809,975.0300292968750000,40.5917816162109400,573.9053955078125000,4.0541338920593260,55.5664405822753900,55,97,100,78,83,15473,0,0,0,0,2147124251,2147766820,2147572562,2147568347,3295,2,13,27453
1366294498,5812,977.6799926757812000,40.6088790893554700,573.9357910156250000,4.0531878471374510,55.5658493041992200,55,97,99,79,81,15472,0,0,0,0,2147124516,2147771629,2147572507,2147567515,92,2,13,12143
1366298098,5808,975.6900024414062000,40.7600402832031250,574.7927246093750000,4.0265269279479980,55.5508003234863300,55,97,99,77,83,15469,0,0,0,0,2147125202,2147769426,2147573714,2147568758,111,2,13,31040
1366301698,5809,974.3900146484375000,40.4525604248046900,574.8701171875000000,4.0241179466247560,55.6034698486328100,55,155,100,78,82,15475,0,0,0,0,2147123172,2147776667,2147575689,2147568374,95,2,13,61181
1366305298,5810,985.9199829101562000,41.6582107543945300,573.9721069335938000,4.0520591735839840,55.4109992980957000,55,98,100,78,81,15470,0,0,0,0,2147121508,2147772141,2147575131,2147570614,452,3,13,37440
1366308898,5812,982.9299926757812000,41.0197906494140600,573.0587158203125000,4.0804710388183590,55.5013008117675800,54,97,98,78,82,15472,0,0,0,0,2147122441,2147771803,2147569133,2147569856,130,3,13,22585
1366312498,5809,983.3099975585938000,40.1682014465332000,572.9276733398438000,4.0845451354980470,55.6199302673339840,55,99,100,78,82,15463,0,0,0,0,2147123574,2147777106,2147569846,2147570084,598,2,13,49347
1366316098,5811,991.4000244140625000,40.7079200744628900,572.2197875976562000,4.1065578460693360,55.5356597900390600,55,97,100,79,80,15468,0,0,0,0,2147123602,2147772461,2147573257,2147569289,3147,3,13,40813
1366316757,5811,992.3099975585938000,40.2486495971679700,572.2838134765625000,4.1045699119567870,55.6013183593750000,55,97,101,77,82,15466,0,0,0,0,2147125229,2147767872,2147575076,2147568438,102,3,13,30139
